EW2654 Weather Reports


time (UTC)temp
C
wind
direction
speed
KPH
gust
KPH
rain 1hr
cm
rain 24hr
cm
rain mn
cm
humidity
%
barometer
mb
20260505091527 5 194 8.0 16.1 0.00 0.03 0.00 92 1010.4
20260505090029 5 203 6.4 12.9 0.00 0.03 0.00 92 1010.1
20260505084527 5 195 8.0 16.1 0.00 0.03 0.00 92 1010.0
20260505083018 5 202 4.8 12.9 0.00 0.03 0.00 92 1009.7
20260505081518 4 194 4.8 12.9 0.00 0.03 0.00 92 1009.6
20260505080024 4 187 3.2 9.7 0.00 0.03 0.00 92 1009.3
20260505074512 5 175 4.8 9.7 0.00 0.05 0.00 91 1009.1
20260505073010 5 191 4.8 12.9 0.00 0.05 0.00 91 1008.9
20260505071508 5 201 4.8 14.5 0.00 0.05 0.00 91 1008.8
20260505070005 5 206 6.4 12.9 0.00 0.05 0.00 90 1008.5
20260505064506 5 194 6.4 14.5 0.00 0.08 0.00 90 1008.1
20260505063059 5 178 6.4 17.7 0.00 0.08 0.00 90 1007.8
20260505061614 5 195 9.7 16.1 0.00 0.08 0.00 89 1007.6
20260505060057 5 182 4.8 9.7 0.00 0.08 0.00 88 1007.3
20260505054555 6 203 4.8 12.9 0.00 0.08 0.00 88 1007.1
20260505053046 6 201 6.4 14.5 0.00 0.08 0.00 87 1006.8
20260505051543 6 184 8.0 20.9 0.00 0.08 0.00 86 1006.5
20260505041532 6 195 4.8 12.9 0.00 0.08 0.00 82 1005.7
20260505040038 7 205 4.8 11.3 0.00 0.08 0.00 80 1005.7
20260505034536 7 203 6.4 16.1 0.00 0.08 0.00 79 1005.6
20260505033022 8 198 6.4 14.5 0.00 0.08 0.00 78 1005.3
20260505031519 8 209 3.2 12.9 0.00 0.08 0.00 77 1005.0
20260505030018 8 230 3.2 16.1 0.00 0.08 0.00 76 1004.8
20260505024516 8 215 3.2 8.0 0.00 0.08 0.08 75 1004.6
20260505023014 8 214 6.4 16.1 0.00 0.08 0.08 74 1004.4
20260505021513 8 201 8.0 14.5 0.00 0.08 0.08 72 1004.0
20260505020013 9 201 8.0 17.7 0.00 0.08 0.08 70 1003.9
20260505014512 10 210 8.0 25.7 0.00 0.10 0.08 70 1004.0
20260505013010 10 195 6.4 12.9 0.00 0.10 0.08 69 1003.9
20260505011511 10 226 9.7 25.7 0.00 0.10 0.08 66 1003.9
20260505010009 10 221 12.9 29.0 0.00 0.10 0.08 64 1004.0
20260505004514 10 203 12.9 25.7 0.00 0.20 0.08 64 1003.9
20260505003007 9 178 11.3 20.9 0.00 0.20 0.08 66 1003.7
20260505001506 8 207 8.0 19.3 0.00 0.20 0.08 67 1003.6
20260505000004 10 207 4.8 16.1 0.00 0.20 0.08 62 1003.3
20260504234613 10 173 6.4 16.1 0.00 0.94 0.08 62 1002.9
20260504234501 10 193 6.4 16.1 0.00 0.94 0.08 62 1002.8
20260504233104 10 169 6.4 14.5 0.00 0.94 0.08 61 1002.7
20260504231558 10 171 4.8 16.1 0.00 0.94 0.08 61 1002.5
20260504230059 11 205 11.3 25.7 0.00 0.94 0.08 60 1002.5
20260504224556 11 216 11.3 22.5 0.00 1.27 0.08 57 1002.4
20260504223056 11 247 12.9 29.0 0.00 1.27 0.08 55 1002.2
20260504221553 12 188 9.7 22.5 0.00 1.27 0.08 54 1001.9
20260504220058 12 223 11.3 33.8 0.00 1.27 0.08 52 1001.9
20260504214550 12 281 14.5 38.6 0.00 1.68 0.08 51 1001.6
20260504213107 12 254 17.7 43.5 0.00 1.68 0.08 51 1001.5
20260504211548 12 250 22.5 45.1 0.00 1.68 0.08 51 1001.2
20260504210046 12 209 19.3 35.4 0.00 1.68 0.08 52 1000.8
20260504204545 12 200 16.1 53.1 0.00 1.75 0.08 53 1000.6
20260504203041 12 200 17.7 56.3 0.00 1.75 0.08 57 1000.5
20260504201541 11 269 19.3 49.9 0.00 1.75 0.08 62 1000.1
20260504200039 11 267 19.3 51.5 0.00 1.75 0.08 63 999.7
20260504194534 12 269 14.5 45.1 0.00 1.75 0.08 67 999.3
20260504193041 11 223 20.9 46.7 0.00 1.75 0.08 67 999.1
20260504191532 11 212 20.9 46.7 0.00 1.75 0.08 71 999.1
20260504190030 11 192 16.1 51.5 0.00 1.75 0.08 73 998.5
20260504184522 10 257 20.9 46.7 0.00 1.80 0.08 74 998.5
20260504183018 9 274 19.3 38.6 0.00 1.80 0.08 79 998.5
20260504181518 8 230 16.1 37.0 0.00 1.80 0.08 79 998.3
20260504180013 8 250 19.3 38.6 0.00 1.80 0.08 80 998.2
20260504174513 8 248 19.3 43.5 0.00 1.80 0.08 82 998.0
20260504173007 7 263 20.9 40.2 0.00 1.80 0.08 83 997.5
20260504171507 7 210 24.1 48.3 0.00 1.80 0.08 85 997.1
20260504100106 3 258 20.9 37.0 0.00 1.80 0.05 96 980.6